This is the latest recevied weather packets stored in our database for station/object DB0LS-15. If no packets are shown the sender has not sent any weather packets the latest 10 day(s).
| Time | Temp. | Humidity | Pressure | Rain* | Wind** | Luminosity | Snow |
|---|---|---|---|---|---|---|---|
| 1777570835 | 16.11° C | 46% | 1011.7 hPa | 0 mm | - | - | - |
| 1777570231 | 16.11° C | 46% | 1011.7 hPa | 0 mm | - | - | - |
| 1777569627 | 16.11° C | 45% | 1011.6 hPa | 0 mm | - | - | - |
| 1777569024 | 16.11° C | 44% | 1011.7 hPa | 0 mm | - | - | - |
| 1777568420 | 16.11° C | 45% | 1011.8 hPa | 0 mm | - | - | - |
| 1777567816 | 16.11° C | 45% | 1011.7 hPa | 0 mm | - | - | - |
| 1777567272 | 16.11° C | 44% | 1011.8 hPa | 0 mm | - | - | - |
| 1777566668 | 16.11° C | 44% | 1011.8 hPa | 0 mm | - | - | - |
| 1777566065 | 16.11° C | 44% | 1011.8 hPa | 0 mm | - | - | - |
| 1777565461 | 16.67° C | 43% | 1011.9 hPa | 0 mm | - | - | - |
| 1777564857 | 16.67° C | 44% | 1012 hPa | 0 mm | - | - | - |
| 1777564254 | 16.67° C | 44% | 1012.1 hPa | 0 mm | - | - | - |
| 1777563650 | 17.22° C | 43% | 1012 hPa | 0 mm | - | - | - |
| 1777563046 | 16.67° C | 43% | 1012.1 hPa | 0 mm | - | - | - |
| 1777562442 | 15.56° C | 44% | 1012.2 hPa | 0 mm | - | - | - |
| 1777561838 | 16.11° C | 43% | 1012.2 hPa | 0 mm | - | - | - |
| 1777561234 | 16.11° C | 43% | 1012.3 hPa | 0 mm | - | - | - |
| 1777560630 | 16.11° C | 43% | 1012.4 hPa | 0 mm | - | - | - |
| 1777560026 | 17.22° C | 41% | 1012.5 hPa | 0 mm | - | - | - |
| 1777559422 | 16.67° C | 42% | 1012.6 hPa | 0 mm | - | - | - |
| 1777558818 | 15.56° C | 43% | 1012.6 hPa | 0 mm | - | - | - |
| 1777558275 | 16.11° C | 42% | 1012.8 hPa | 0 mm | - | - | - |
| 1777557671 | 16.11° C | 42% | 1012.8 hPa | 0 mm | - | - | - |
| 1777557067 | 15.56° C | 43% | 1012.8 hPa | 0 mm | - | - | - |
| 1777556464 | 16.11° C | 41% | 1012.8 hPa | 0 mm | - | - | - |
* Rain latest hour (hover to see other rain measurements)
** Current wind speed in m/s (hover to see current wind gust speed)